Richmond Hanover County, VA

2:16 AM EDT on September 26, 2017 (GMT -0400)
Hanover County Municipal

Weather History for KOFP - August, 2013

Change the Weather History Date:

Friday, August 2, 2013

  Actual Average Record
Temperature  
Mean Temperature 75 °F -  
Max Temperature 86 °F 86 °F 100 °F (2006)
Min Temperature 64 °F 66 °F 55 °F (1992)
Cooling Degree Days 10    
Growing Degree Days 25 (Base 50)    
Moisture  
Dew Point 65 °F    
Average Humidity 86    
Maximum Humidity 100    
Minimum Humidity 46    
Precipitation  
Precipitation 0.00 in - - ()
Sea Level Pressure  
Sea Level Pressure 29.95 in    
Wind  
Wind Speed 1 mph (WSW)    
Max Wind Speed 10 mph    
Max Gust Speed 16 mph    
Visibility 6 miles    
Events Fog    
Averages and records for this station are not official NWS values.
T = Trace of Precipitation, MM = Missing Value Source: NWS Daily Summary

Daily Weather History Graph

Daily Weather History Graph

Search for Another Location

Airport or City:

Trip Planner

Search our weather history database for the weather conditions in past years. The results will help you decide how hot, cold, wet, or windy it might be!

Date:

Astronomy

Aug. 02, 2013 Rise Set
Actual Time 6:14 AM EDT 8:17 PM EDT
Civil Twilight 5:45 AM EDT 8:45 PM EDT
Nautical Twilight 5:10 AM EDT 9:21 PM EDT
Astronomical Twilight 4:31 AM EDT 9:59 PM EDT
Moon 2:34 AM EDT (8/2) 5:12 PM EDT (8/2)
Length of Visible Light 15h 00m
Length of Day
14h 02m
Waning Crescent, 16% of the Moon is Illuminated
Aug 2
Waning Crescent
Aug 6
New
Aug 14
First Quarter
Aug 20
Full
Aug 28
Last Quarter

Hourly Weather History & Observations

Time (EDT) Temp. Heat Index Dew Point Humidity Pressure Visibility Wind Dir Wind Speed Gust Speed Precip Events Conditions
12:03 AM 66.2 °F - 64.4 °F 94% 29.92 in 1.5 mi Calm Calm - N/A   Partly Cloudy
12:06 AM 66.2 °F - 64.4 °F 94% 29.92 in 3.0 mi Calm Calm - N/A   Partly Cloudy
12:54 AM 66.9 °F - 66.0 °F 97% 29.92 in 8.0 mi Calm Calm - N/A   Clear
1:54 AM 66.0 °F - 66.0 °F 100% 29.91 in 10.0 mi Calm Calm - N/A   Clear
2:29 AM 64.4 °F - 64.4 °F 100% 29.90 in 1.8 mi Calm Calm - N/A   Clear
2:35 AM 64.4 °F - 64.4 °F 100% 29.90 in 0.8 mi Calm Calm - N/A   Clear
2:44 AM 64.4 °F - 64.4 °F 100% 29.89 in 1.2 mi Calm Calm - N/A   Clear
2:49 AM 64.4 °F - 64.4 °F 100% 29.90 in 0.8 mi Calm Calm - N/A   Mist
2:54 AM 64.9 °F - 64.9 °F 100% 29.89 in 0.5 mi Calm Calm - N/A Fog Fog
3:15 AM 64.4 °F - 64.4 °F 100% 29.90 in 1.2 mi Calm Calm - N/A   Partly Cloudy
3:18 AM 64.4 °F - 64.4 °F 100% 29.90 in 2.0 mi Calm Calm - N/A   Partly Cloudy
3:22 AM 64.4 °F - 64.4 °F 100% 29.91 in 1.2 mi Calm Calm - N/A   Partly Cloudy
3:26 AM 64.4 °F - 64.4 °F 100% 29.91 in 0.8 mi Calm Calm - N/A   Mist
3:38 AM 64.4 °F - 64.4 °F 100% 29.91 in 1.2 mi SSW 3.5 mph - N/A   Clear
3:40 AM 64.4 °F - 64.4 °F 100% 29.91 in 2.5 mi SSW 4.6 mph - N/A   Clear
3:47 AM 64.4 °F - 64.4 °F 100% 29.91 in 8.0 mi South 3.5 mph - N/A   Clear
3:54 AM 64.9 °F - 64.9 °F 100% 29.91 in 8.0 mi Calm Calm - N/A   Clear
4:54 AM 66.0 °F - 64.9 °F 96% 29.93 in 8.0 mi Calm Calm - N/A   Clear
5:54 AM 64.9 °F - 64.0 °F 97% 29.94 in 7.0 mi Calm Calm - N/A   Clear
6:23 AM 64.4 °F - 64.4 °F 100% 29.94 in 2.0 mi Calm Calm - N/A   Clear
6:30 AM 64.4 °F - 64.4 °F 100% 29.94 in 1.0 mi Calm Calm - N/A   Clear
6:37 AM 64.4 °F - 64.4 °F 100% 29.94 in 0.8 mi Calm Calm - N/A   Clear
6:41 AM 64.4 °F - 64.4 °F 100% 29.95 in 1.5 mi Calm Calm - N/A   Clear
6:54 AM 64.9 °F - 64.9 °F 100% 29.95 in 1.8 mi Calm Calm - N/A   Clear
7:02 AM 66.2 °F - 64.4 °F 94% 29.95 in 2.0 mi Calm Calm - N/A   Clear
7:14 AM 66.2 °F - 66.2 °F 100% 29.95 in 5.0 mi Calm Calm - N/A   Clear
7:54 AM 69.1 °F - 66.9 °F 93% 29.98 in 9.0 mi WSW 3.5 mph - N/A   Clear
8:54 AM 73.9 °F - 68.0 °F 82% 29.99 in 10.0 mi NW 3.5 mph - N/A   Clear
9:54 AM 79.0 °F - 69.1 °F 72% 30.00 in 10.0 mi Calm Calm - N/A   Clear
10:54 AM 81.0 °F 83.0 °F 66.0 °F 60% 30.01 in 10.0 mi Calm Calm - N/A   Clear
11:54 AM 82.0 °F 83.0 °F 62.1 °F 51% 30.00 in 10.0 mi NNW 4.6 mph - N/A   Clear
12:54 PM 84.9 °F 85.4 °F 62.1 °F 46% 30.01 in 10.0 mi Calm Calm - N/A   Clear
1:54 PM 84.9 °F 85.4 °F 62.1 °F 46% 30.00 in 10.0 mi WSW 5.8 mph - N/A   Partly Cloudy
2:54 PM 84.9 °F 85.9 °F 63.0 °F 48% 29.98 in 10.0 mi Variable 5.8 mph - N/A   Scattered Clouds
3:54 PM 86.0 °F 86.8 °F 63.0 °F 46% 29.98 in 10.0 mi Variable 6.9 mph - N/A   Partly Cloudy
4:54 PM 84.9 °F 85.4 °F 62.1 °F 46% 29.97 in 10.0 mi WSW 9.2 mph - N/A   Partly Cloudy
5:54 PM 84.9 °F 85.9 °F 63.0 °F 48% 29.97 in 10.0 mi West 10.4 mph 16.1 mph N/A   Scattered Clouds
6:54 PM 82.9 °F 83.7 °F 62.1 °F 49% 29.97 in 10.0 mi SW 8.1 mph - N/A   Clear
7:54 PM 80.1 °F 81.2 °F 62.1 °F 54% 29.97 in 10.0 mi SSW 4.6 mph - N/A   Clear
8:54 PM 71.1 °F - 66.0 °F 84% 29.99 in 10.0 mi Calm Calm - N/A   Clear
9:54 PM 70.0 °F - 66.9 °F 90% 30.00 in 10.0 mi Calm Calm - N/A   Clear
10:54 PM 68.0 °F - 66.0 °F 93% 30.00 in 9.0 mi Calm Calm - N/A   Clear
11:54 PM 66.9 °F - 66.0 °F 97% 29.99 in 8.0 mi Calm Calm - N/A   Clear